Showing default

ARASE (ERG), 41896

Orbit data source: Space-Track

ARASE (ERG), 41896 is a payload satellite owned by ISAS/JAXA (JP) in HEO that was launched on Tue, 20 Dec 2016 UTC via an EPSILON launch vehicle from the Kagoshima Space Center University Of Tokyo (KSCUT). Payloads include a variety of satellites, spacecraft, and rockets equipped with specific instruments for various scientific and technological missions. These include communications satellites like Starlink; space stations such as the ISS; scientific satellites like the Hubble; Earth observation satellites from companies like Planet Labs, Umbra, and HawkEye 360; GPS; miniature CubeSats for education and research; and military/defense satellites.

Loading next visibility...
ARASE (ERG) details
Identifier
41896, 2016-080A
Orbit
HEO
Last TLE update14 hours ago
Origin
Flag of JPISAS/JAXA (JP / JPN)
ManufacturerISAS/JAXA
MissionOperational Civil Science
Bus & MotorSPRINT-B, Unknown motor
Mass350 kg wet, 350 kg dry
Launch date (UTC)
2016-12-20 (8 years ago)
Launch vehicle
EPSILON
Launch site
Kagoshima Space Center University Of Tokyo (KSCUT)
Object type
Payload
Rocket body
Debris
Shape & HBRBox + 4 Pan + 6 Ant, Unknown HBR
Radar Cross Section33.836 m², Large (>1 m²)

Expand to show TLE details & history

TLE from 14 hours ago
0 ARASE (ERG)
1 41896U 16080A   24361.25157810  .00004614  00000-0  44055-2 0  9993
2 41896  31.2881 222.2592 7020429  78.2933 346.9401  2.56578338 74435
Epoch: 2024-12-26T06:02Z
Definitive object data (Epoch: 2024-12-26T06:02:16.347Z)
Latitude-0.00008°
Longitude36.54081°
Altitude3,600.744 km
Speed7.887 km/s
True Right ascension14h 49m 22s
True Declination0° 00' 00"
Sunlit
Object was in daylight at TLE epoch
Visualization TLE readout
Latitude-30.30775°
Longitude-69.76789°
Altitude31,917.954 km
Speed1.77 km/s
Apparent Right ascension07h 42m 34s
Apparent Declination-31° 37' 39"
Sunlit
Object is in daylight
Visualization observer readout
Local Sidereal Time19:32:02
Azimuth344.754° N
Elevation-81.441°
Doppler factor1
Orbital elements
Apogee altitude31,988.585 km
Perigee altitude338.284 km
Semi-major axis22,541.572 km
Eccentricity0.7020429
Inclination31.2881°
RAAN222.2592°
Arg. of periapsis78.2933°
True anomaly281.72469°
Mean anomaly346.9401°
Eccentric anomaly322.39451°
Mean motion0.64131 °/min
BSTAR0.0044055
Orbital period561.35 mins
Loading maneuver chart data...
Loading historical data...
Loading historical data...
Loading historical data...
Loading historical data...
Loading historical data...
Loading historical data...
Loading historical data...
Other satellites on launch #80 in the year 2016 (2016-12-20 UTC)

ARASE (ERG) Visibility forecast

Observer location: undefined°, undefined

Span
Click to sort rows by Start time (UTC) header in descending order
Start Az.
Max El. time (UTC)
Max El. Az.
Max El.
End time (UTC)
End Az.
37 mins2024-12-27 01:14:15.394Z237.225° WSW2024-12-27 01:20:15.394Z182.85° SSW25.489°2024-12-27 01:51:15.394Z137.142° SSE
|